EW2112 Weather Reports


time (UTC)temp
C
wind
direction
speed
KPH
gust
KPH
rain 1hr
cm
rain 24hr
cm
rain mn
cm
humidity
%
barometer
mb
20260509090026 15 128 0.0 0.0 0.00 0.00 0.00 72 1021.5
20260509084528 15 128 0.0 0.0 0.00 0.00 0.00 70 1021.4
20260509083025 16 128 0.0 0.0 0.00 0.00 0.00 68 1021.1
20260509081525 16 128 0.0 0.0 0.00 0.00 0.00 66 1020.9
20260509080024 16 128 0.0 1.6 0.00 0.00 0.00 64 1020.7
20260509074523 17 128 0.0 1.6 0.00 0.00 0.00 62 1020.5
20260509073025 17 128 0.0 4.8 0.00 0.00 0.00 60 1020.4
20260509071523 18 144 0.0 4.8 0.00 0.00 0.00 58 1020.2
20260509070022 18 138 1.6 11.3 0.00 0.00 0.00 56 1020.0
20260509064522 20 111 1.6 8.0 0.00 0.00 0.00 54 1019.8
20260509063027 20 109 1.6 8.0 0.00 0.00 0.00 52 1019.7
20260509061522 21 115 4.8 14.5 0.00 0.00 0.00 50 1019.4
20260509060019 21 111 4.8 11.3 0.00 0.00 0.00 48 1019.3
20260509054521 21 110 1.6 11.3 0.00 0.00 0.00 48 1019.1
20260509053018 22 158 8.0 16.1 0.00 0.00 0.00 46 1019.0
20260509051517 22 155 3.2 12.9 0.00 0.00 0.00 40 1018.9
20260509050024 23 334 1.6 8.0 0.00 0.00 0.00 39 1018.9
20260509044514 23 182 1.6 4.8 0.00 0.00 0.00 40 1019.0
20260509043012 22 167 4.8 11.3 0.00 0.00 0.00 40 1019.0
20260509041519 22 174 1.6 6.4 0.00 0.00 0.00 42 1019.0
20260509040011 22 229 3.2 8.0 0.00 0.00 0.00 40 1019.0
20260509034509 22 234 3.2 9.7 0.00 0.00 0.00 41 1019.0
20260509033008 22 306 1.6 9.7 0.00 0.00 0.00 41 1019.2
20260509031521 22 173 6.4 11.3 0.00 0.00 0.00 41 1019.4
20260509030006 21 254 3.2 9.7 0.00 0.00 0.00 43 1019.5
20260509024504 21 200 4.8 16.1 0.00 0.00 0.00 44 1019.8
20260509023003 21 234 1.6 9.7 0.00 0.00 0.00 44 1020.0
20260509021600 21 190 1.6 12.9 0.00 0.00 0.00 47 1020.2
20260509020059 21 181 6.4 12.9 0.00 0.00 0.00 48 1020.4
20260509014556 20 181 1.6 9.7 0.00 0.00 0.00 47 1020.6
20260509013053 20 279 4.8 8.0 0.00 0.00 0.00 52 1020.8
20260509011550 19 286 1.6 8.0 0.00 0.00 0.00 54 1020.8
20260509010048 18 238 0.0 6.4 0.00 0.00 0.00 56 1021.0
20260509004543 18 291 1.6 6.4 0.00 0.00 0.00 58 1021.2
20260509003045 17 279 1.6 8.0 0.00 0.00 0.00 58 1021.3
20260509001536 17 265 3.2 9.7 0.00 0.00 0.00 60 1021.4
20260509000033 17 240 3.2 6.4 0.00 0.00 0.00 61 1021.5
20260508234529 16 243 1.6 6.4 0.00 0.00 0.00 62 1021.5
20260508233025 16 275 3.2 11.3 0.00 0.00 0.00 66 1021.5
20260508231521 15 268 1.6 4.8 0.00 0.00 0.00 68 1021.5
20260508230017 13 304 1.6 4.8 0.00 0.00 0.00 71 1021.5
20260508224512 13 304 0.0 4.8 0.00 0.00 0.00 74 1021.5
20260508223009 12 304 0.0 3.2 0.00 0.00 0.00 77 1021.5
20260508221504 11 304 0.0 3.2 0.00 0.00 0.00 81 1021.4
20260508220008 9 304 0.0 1.6 0.00 0.00 0.00 88 1021.3
20260508214600 8 304 0.0 0.0 0.00 0.00 0.00 88 1021.1
20260508213059 8 304 0.0 0.0 0.00 0.00 0.00 89 1021.0
20260508211554 8 304 0.0 0.0 0.00 0.00 0.00 87 1020.8
20260508210054 8 304 0.0 0.0 0.00 0.00 0.00 87 1020.5
20260508204601 8 304 0.0 1.6 0.00 0.00 0.00 85 1020.4
20260508203148 8 304 0.0 0.0 0.00 0.00 0.00 84 1020.2
20260508201547 8 304 0.0 1.6 0.00 0.00 0.00 83 1020.0
20260508200044 9 304 0.0 6.4 0.00 0.00 0.00 82 1020.0
20260508194540 9 304 0.0 3.2 0.00 0.00 0.00 81 1019.7
20260508193037 10 304 1.6 4.8 0.00 0.00 0.00 80 1019.5
20260508191536 9 302 3.2 6.4 0.00 0.00 0.00 83 1019.3
20260508190041 9 203 0.0 0.0 0.00 0.00 0.00 85 1019.2
20260508184542 9 203 0.0 0.0 0.00 0.00 0.00 83 1019.0
20260508183033 9 203 0.0 0.0 0.00 0.00 0.00 82 1018.9
20260508181538 10 203 0.0 0.0 0.00 0.00 0.00 82 1018.7
20260508180029 10 203 0.0 1.6 0.00 0.00 0.00 80 1018.6
20260508174535 10 203 0.0 0.0 0.00 0.00 0.00 80 1018.7
20260508173026 10 203 0.0 0.0 0.00 0.00 0.00 79 1018.7
20260508171526 10 203 0.0 3.2 0.00 0.00 0.00 79 1018.6
20260508170026 10 203 0.0 3.2 0.00 0.00 0.00 79 1018.7
20260508164525 10 203 1.6 4.8 0.00 0.00 0.00 81 1018.7
20260508163033 9 203 0.0 0.0 0.00 0.00 0.00 83 1018.6
20260508161529 9 203 0.0 1.6 0.00 0.00 0.00 82 1018.6
20260508160020 9 203 0.0 1.6 0.00 0.00 0.00 81 1018.5
20260508154519 9 203 0.0 1.6 0.00 0.00 0.00 81 1018.5
20260508153020 9 203 0.0 3.2 0.00 0.00 0.00 81 1018.5
20260508151517 10 203 0.0 1.6 0.00 0.00 0.00 80 1018.6
20260508150015 10 203 0.0 0.0 0.00 0.00 0.00 78 1018.5
20260508144511 10 203 0.0 0.0 0.00 0.00 0.00 77 1018.4
20260508143010 11 203 0.0 0.0 0.00 0.00 0.00 77 1018.5
20260508141508 10 203 0.0 3.2 0.00 0.00 0.00 78 1018.5
20260508140008 10 203 0.0 0.0 0.00 0.00 0.00 78 1018.3
20260508134509 10 203 0.0 0.0 0.00 0.00 0.00 78 1018.3
20260508133003 10 203 0.0 0.0 0.00 0.00 0.00 78 1018.3
20260508131503 10 203 0.0 1.6 0.00 0.00 0.00 78 1018.3
20260508130005 11 203 0.0 3.2 0.00 0.00 0.00 77 1018.3
20260508124507 10 203 0.0 3.2 0.00 0.00 0.00 78 1018.3
20260508123000 11 202 0.0 3.2 0.00 0.00 0.00 77 1018.2
20260508121601 11 202 0.0 1.6 0.00 0.00 0.00 76 1018.2
20260508120100 11 202 0.0 1.6 0.00 0.00 0.00 75 1018.1
20260508114559 11 202 0.0 0.0 0.00 0.00 0.00 73 1018.2
20260508113104 12 202 0.0 0.0 0.00 0.00 0.00 72 1018.2
20260508111556 12 202 0.0 0.0 0.00 0.00 0.00 71 1017.9
20260508110054 12 202 0.0 3.2 0.00 0.00 0.00 71 1017.6
20260508104552 12 200 0.0 0.0 0.00 0.00 0.00 70 1017.7
20260508103051 12 200 0.0 0.0 0.00 0.00 0.00 68 1017.6
20260508101547 13 200 0.0 1.6 0.00 0.00 0.00 67 1017.4
20260508100046 13 200 0.0 0.0 0.00 0.00 0.00 65 1017.3
20260508094605 13 200 0.0 3.2 0.00 0.00 0.00 63 1017.1
20260508093040 14 200 0.0 3.2 0.00 0.00 0.00 62 1016.9
20260508091542 14 199 0.0 1.6 0.00 0.00 0.00 61 1016.8